| time (UTC) | temp F | wind direction | speed MPH | gust MPH | rain 1hr in | rain 24hr in | rain mn in | humidity % | barometer mb |
| 20260505231557 | 68 | 246 | 4.0 | 14.0 | 0.00 | 0.00 | 0.00 | 23 | 1009.1 |
| 20260505230058 | 66 | 261 | 3.0 | 16.0 | 0.00 | 0.00 | 0.00 | 25 | 1009.2 |
| 20260505224554 | 68 | 157 | 6.0 | 15.0 | 0.00 | 0.00 | 0.00 | 24 | 1009.2 |
| 20260505223108 | 67 | 214 | 9.0 | 22.0 | 0.00 | 0.00 | 0.00 | 28 | 1009.2 |
| 20260505221557 | 67 | 127 | 9.0 | 20.0 | 0.00 | 0.00 | 0.00 | 27 | 1009.3 |
| 20260505220100 | 66 | 147 | 10.0 | 15.0 | 0.00 | 0.00 | 0.00 | 32 | 1009.3 |
| 20260505214602 | 65 | 165 | 5.0 | 13.0 | 0.00 | 0.00 | 0.00 | 34 | 1009.6 |
| 20260505213055 | 65 | 148 | 3.0 | 15.0 | 0.00 | 0.00 | 0.00 | 40 | 1010.0 |
| 20260505211617 | 67 | 161 | 7.0 | 21.0 | 0.00 | 0.00 | 0.00 | 32 | 1009.7 |
| 20260505210056 | 67 | 144 | 9.0 | 20.0 | 0.00 | 0.00 | 0.00 | 31 | 1010.2 |
| 20260505204556 | 67 | 158 | 5.0 | 23.0 | 0.00 | 0.00 | 0.00 | 34 | 1010.4 |
| 20260505203121 | 70 | 195 | 7.0 | 14.0 | 0.00 | 0.00 | 0.00 | 30 | 1010.5 |
| 20260505201555 | 69 | 156 | 10.0 | 19.0 | 0.00 | 0.00 | 0.00 | 29 | 1010.3 |
| 20260505200055 | 67 | 189 | 6.0 | 19.0 | 0.00 | 0.00 | 0.00 | 33 | 1010.5 |
| 20260505194558 | 69 | 158 | 8.0 | 17.0 | 0.00 | 0.00 | 0.00 | 31 | 1010.6 |
| 20260505193054 | 69 | 145 | 6.0 | 22.0 | 0.00 | 0.00 | 0.00 | 30 | 1010.6 |
| 20260505191556 | 69 | 103 | 8.0 | 19.0 | 0.00 | 0.00 | 0.00 | 32 | 1010.9 |
| 20260505190056 | 68 | 152 | 7.0 | 18.0 | 0.00 | 0.00 | 0.00 | 31 | 1010.7 |
| 20260505184555 | 67 | 194 | 7.0 | 16.0 | 0.00 | 0.00 | 0.00 | 35 | 1011.1 |
| 20260505183054 | 65 | 149 | 7.0 | 18.0 | 0.00 | 0.00 | 0.00 | 37 | 1011.3 |
| 20260505181552 | 65 | 129 | 7.0 | 16.0 | 0.00 | 0.00 | 0.00 | 36 | 1011.3 |
| 20260505174556 | 68 | 117 | 8.0 | 17.0 | 0.00 | 0.00 | 0.00 | 38 | 1011.2 |
| 20260505173056 | 67 | 113 | 8.0 | 16.0 | 0.00 | 0.00 | 0.00 | 36 | 1011.0 |
| 20260505171558 | 67 | 132 | 7.0 | 13.0 | 0.00 | 0.00 | 0.00 | 37 | 1011.2 |
| 20260505170055 | 67 | 144 | 3.0 | 14.0 | 0.00 | 0.00 | 0.00 | 33 | 1011.1 |
| 20260505164556 | 65 | 189 | 4.0 | 12.0 | 0.00 | 0.00 | 0.00 | 35 | 1011.2 |
| 20260505163055 | 60 | 174 | 6.0 | 16.0 | 0.00 | 0.00 | 0.00 | 46 | 1011.4 |
| 20260505161555 | 64 | 96 | 4.0 | 14.0 | 0.00 | 0.00 | 0.00 | 41 | 1011.6 |
| 20260505153057 | 63 | 185 | 6.0 | 16.0 | 0.00 | 0.00 | 0.00 | 44 | 1011.8 |
| 20260505151553 | 61 | 146 | 4.0 | 15.0 | 0.00 | 0.00 | 0.00 | 48 | 1011.8 |
| 20260505140109 | 56 | 198 | 0.0 | 4.0 | 0.00 | 0.00 | 0.00 | 49 | 1012.2 |
| 20260505124554 | 53 | 0 | 0.0 | 3.0 | 0.00 | 0.00 | 0.00 | 52 | 1011.6 |
| 20260505123059 | 53 | 0 | 0.0 | 4.0 | 0.00 | 0.00 | 0.00 | 54 | 1011.3 |
| 20260505121555 | 54 | 0 | 0.0 | 3.0 | 0.00 | 0.00 | 0.00 | 53 | 1011.3 |
| 20260505120112 | 54 | 0 | 0.0 | 1.0 | 0.00 | 0.00 | 0.00 | 55 | 1011.3 |
| 20260505114558 | 54 | 0 | 0.0 | 1.0 | 0.00 | 0.00 | 0.00 | 54 | 1011.4 |
| 20260505113104 | 55 | 0 | 0.0 | 1.0 | 0.00 | 0.00 | 0.00 | 52 | 1011.5 |
| 20260505111559 | 56 | 0 | 0.0 | 0.0 | 0.00 | 0.00 | 0.00 | 51 | 1011.6 |
| 20260505101558 | 55 | 0 | 0.0 | 1.0 | 0.00 | 0.00 | 0.00 | 50 | 1011.9 |
| 20260505100055 | 56 | 0 | 0.0 | 1.0 | 0.00 | 0.00 | 0.00 | 49 | 1012.0 |
| 20260505094602 | 56 | 0 | 0.0 | 5.0 | 0.00 | 0.00 | 0.00 | 47 | 1012.1 |
| 20260505093057 | 57 | 0 | 0.0 | 5.0 | 0.00 | 0.00 | 0.00 | 46 | 1012.4 |
| 20260505091602 | 55 | 190 | 0.0 | 4.0 | 0.00 | 0.00 | 0.00 | 48 | 1012.8 |
| 20260505090058 | 55 | 0 | 0.0 | 3.0 | 0.00 | 0.00 | 0.00 | 49 | 1012.9 |
| 20260505084604 | 54 | 244 | 1.0 | 4.0 | 0.00 | 0.00 | 0.00 | 48 | 1013.1 |
| 20260505083105 | 55 | 0 | 0.0 | 1.0 | 0.00 | 0.00 | 0.00 | 47 | 1013.0 |
| 20260505081554 | 55 | 0 | 0.0 | 1.0 | 0.00 | 0.00 | 0.00 | 47 | 1012.9 |
| 20260505080054 | 56 | 0 | 0.0 | 1.0 | 0.00 | 0.00 | 0.00 | 46 | 1013.1 |
| 20260505074555 | 55 | 0 | 0.0 | 2.0 | 0.00 | 0.00 | 0.00 | 43 | 1013.1 |
| 20260505073057 | 55 | 0 | 0.0 | 1.0 | 0.00 | 0.00 | 0.00 | 41 | 1013.1 |
| 20260505071600 | 56 | 0 | 0.0 | 1.0 | 0.00 | 0.00 | 0.00 | 39 | 1013.1 |
| 20260505070104 | 56 | 0 | 0.0 | 1.0 | 0.00 | 0.00 | 0.00 | 38 | 1013.2 |
| 20260505064557 | 57 | 0 | 0.0 | 2.0 | 0.00 | 0.00 | 0.00 | 36 | 1013.3 |
| 20260505063054 | 58 | 0 | 0.0 | 2.0 | 0.00 | 0.00 | 0.00 | 35 | 1013.3 |
| 20260505061613 | 59 | 0 | 0.0 | 4.0 | 0.00 | 0.00 | 0.00 | 34 | 1013.2 |
| 20260505054557 | 60 | 159 | 1.0 | 9.0 | 0.00 | 0.00 | 0.00 | 35 | 1013.4 |
| 20260505053055 | 60 | 0 | 1.0 | 3.0 | 0.00 | 0.00 | 0.00 | 37 | 1013.3 |
| 20260505051555 | 60 | 109 | 3.0 | 10.0 | 0.00 | 0.00 | 0.00 | 39 | 1013.4 |
| 20260505041604 | 61 | 0 | 1.0 | 5.0 | 0.00 | 0.00 | 0.00 | 40 | 1013.7 |
| 20260505034554 | 61 | 0 | 3.0 | 11.0 | 0.00 | 0.00 | 0.00 | 39 | 1013.1 |
| 20260505033100 | 62 | 141 | 2.0 | 8.0 | 0.00 | 0.00 | 0.00 | 39 | 1013.1 |
| 20260505031557 | 62 | 0 | 0.0 | 8.0 | 0.00 | 0.00 | 0.00 | 39 | 1012.8 |
| 20260505030055 | 62 | 122 | 1.0 | 10.0 | 0.00 | 0.00 | 0.00 | 37 | 1012.7 |
| 20260505024553 | 63 | 150 | 3.0 | 11.0 | 0.00 | 0.00 | 0.00 | 37 | 1012.4 |
| 20260505023054 | 63 | 148 | 2.0 | 12.0 | 0.00 | 0.00 | 0.00 | 36 | 1012.3 |
| 20260505021603 | 64 | 132 | 5.0 | 12.0 | 0.00 | 0.00 | 0.00 | 35 | 1011.9 |
| 20260505020055 | 64 | 121 | 6.0 | 13.0 | 0.00 | 0.00 | 0.00 | 33 | 1011.8 |
| 20260505014557 | 65 | 143 | 4.0 | 14.0 | 0.00 | 0.00 | 0.00 | 31 | 1011.7 |
| 20260505013055 | 66 | 150 | 5.0 | 11.0 | 0.00 | 0.00 | 0.00 | 29 | 1011.6 |
| 20260505011600 | 67 | 109 | 5.0 | 14.0 | 0.00 | 0.00 | 0.00 | 29 | 1011.6 |
| 20260505010107 | 67 | 127 | 7.0 | 13.0 | 0.00 | 0.00 | 0.00 | 28 | 1011.7 |
| 20260505004557 | 68 | 122 | 8.0 | 20.0 | 0.00 | 0.00 | 0.00 | 28 | 1011.9 |
| 20260505003058 | 69 | 144 | 3.0 | 11.0 | 0.00 | 0.00 | 0.00 | 27 | 1011.9 |
| 20260505001558 | 70 | 136 | 6.0 | 16.0 | 0.00 | 0.00 | 0.00 | 26 | 1011.8 |
| 20260505000108 | 70 | 104 | 6.0 | 17.0 | 0.00 | 0.00 | 0.00 | 27 | 1011.8 |
| 20260504234607 | 70 | 165 | 5.0 | 12.0 | 0.00 | 0.00 | 0.00 | 28 | 1011.7 |
| 20260504233058 | 70 | 138 | 7.0 | 16.0 | 0.00 | 0.00 | 0.00 | 28 | 1011.8 |